Location: Newark
(33.7579°N, 132.8129°E)
Time: 07:16:48
(UTC+00:00)

Hubble Space Telescope - Pass Details

Date: 22 November 2019
Orbit: 536 x 540 km, 28.5° (Epoch: 15 December)

Event Time Altitude Azimuth Distance (km) Brightness Sun altitude
Rises 09:35:04 0° 253° (WSW) 2,668 6.0 -19.1°
Reaches altitude 10° 09:37:25 10° 246° (WSW) 1,779 4.6 -19.6°
Maximum altitude 09:41:15 39° 177° (S) 814 1.7 -20.4°
Enters shadow 09:42:05 34° 147° (SSE) 883 1.6 -20.5°
